Regional Weather Roundup
Issued by NWS Albany, NY

Home | Current Version | Previous Version | Text Only | Print | Product List | Glossary On
Versions: 1 2 3 4 5 6 7 8 9 10 11 12 13 14 15 16 17 18 19 20 21 22 23 24 25 26 27 28 29 30 31 32 33 34 35 36 37 38 39 40 41 42 43 44 45 46 47 48 49 50
000
ASUS41 KALY 231310
RWRALY

NEW YORK STATE HOURLY WEATHER ROUNDUP
NATIONAL WEATHER SERVICE ALBANY NY
900 AM EDT WED JUL 23 2014

NOTE: "FAIR" INDICATES FEW OR NO CLOUDS BELOW 12,000 FEET WITH NO
SIGNIFICANT WEATHER AND/OR NO OBSTRUCTIONS TO VISIBILITY.

NYZ032-033-038>043-046>054-057>066-NYZ062>081-231400-
EAST


CITY           SKY/WX    TMP DP  RH WIND       PRES   REMARKS
ALBANY         MOSUNNY   78  70  76 S10       29.91F
GLENS FALLS    SUNNY     77  70  79 S13       29.87F
POUGHKEEPSIE   MOSUNNY   78  68  71 SW8       29.95F
NEWBURGH       SUNNY     75  70  83 W9        29.99
MONTGOMERY     SUNNY     77  69  76 SW7       29.96F
WHITE PLAINS   MOSUNNY   77  67  71 CALM      29.98F
ISLIP          MOSUNNY   79  69  71 S8        29.98F
NEW YORK CITY  MOSUNNY   79  67  66 SW8       29.97F
CENTRAL PARK   MOSUNNY   77  67  71 VRB6      30.01F
$$

NYZ005>009-017-018-044>046-055-056-231400-
CENTRAL


CITY           SKY/WX    TMP DP  RH WIND       PRES   REMARKS
FULTON         PTSUNNY   79  70  74 SW8       29.86F
SYRACUSE       CLOUDY    83  69  62 SW15      29.86F
ROME           MOSUNNY   79  71  76 CALM      29.88F
ELMIRA         PTSUNNY   80  72  76 SW6       29.92F
BINGHAMTON     MOSUNNY   75  69  81 SW10      29.97F
MONTICELLO     CLOUDY    72  70  94 CALM      30.01F
$$

NYZ026>034-041>043-231400-
NORTH


CITY           SKY/WX    TMP DP  RH WIND       PRES   REMARKS
WATERTOWN      PTSUNNY   78  67  68 SW12G24   29.83S
FORT DRUM      NOT AVBL
MASSENA        CLOUDY    73  71  93 SW8       29.79S
SARANAC LAKE   CLOUDY    74  67  78 SW14G23   29.86F
PLATTSBURGH    PTSUNNY   79  70  74 VRB3      29.79F
$$

NYZ001>004-010>016-019>021-231400-
WEST


CITY           SKY/WX    TMP DP  RH WIND       PRES   REMARKS
NIAGARA FALLS  CLOUDY    76  70  82 W10       29.88R
BUFFALO        CLOUDY    75  69  81 SW14G24   29.89R
DUNKIRK        CLOUDY    77  68  73 SW14G22   29.91R
JAMESTOWN      CLOUDY    72  66  83 SW9       29.97R
WELLSVILLE     PTSUNNY   76  66  71 SW8       29.98F
ROCHESTER      CLOUDY    78  70  76 SW10      29.87R
PENN YAN       PTSUNNY   77  69  76 S8        29.91F
$$

             KEY
       WCI = WIND CHILL INDEX
       VSB = VISIBILITY
       HX  = HEAT INDEX
$$



USA.gov is the U.S. government's official web portal to all federal, state and local government web resources and services.